This demonstration page uses our WeatherBlox Daily Observations layout. Learn more.

Left ArrowRight Arrow

40.92945, -100.16068

Hourly Observations for February 24, 2016

Temp ( °F °C ) Dew Point ( °F °C ) Humidity (%) Winds ( mph kmh ) Pressure ( in mb ) Visibility ( mi km ) Precip ( " mm )
12:15 am 00:15 Clear 27 -2.8 20 -6.6 75 75 WNW 9 15 30.24 1024 10 16.0934 N/A
12:35 am 00:35 Clear 26 -3.2 20 -6.7 77 77 WNW 8 13 30.24 1024 10 16.0934 N/A
12:55 am 00:55 Clear 26 -3.3 20 -6.6 78 78 NW 8 13 30.24 1024 10 16.0934 N/A
1:15 am 01:15 Clear 26 -3.3 20 -6.5 79 79 WNW 9 15 30.24 1024 10 16.0934 N/A
1:35 am 01:35 Clear 26 -3.5 20 -6.6 79 79 NW 9 15 30.21 1023 10 16.0934 N/A
1:55 am 01:55 Clear 26 -3.1 21 -6.2 79 79 WNW 12 19 30.21 1023 10 16.0934 N/A
2:15 am 02:15 Clear 27 -2.8 21 -6.3 77 77 WNW 10 17 30.21 1023 10 16.0934 N/A
2:35 am 02:35 Clear 27 -2.8 20 -6.5 76 76 WNW 10 17 30.21 1023 10 16.0934 N/A
2:55 am 02:55 Clear 26 -3.5 20 -6.6 79 79 WNW 9 15 30.21 1023 10 16.0934 N/A
3:15 am 03:15 Clear 25 -3.8 20 -6.5 82 82 WNW 7 11 30.21 1023 10 16.0934 N/A
3:35 am 03:35 Clear 25 -3.7 20 -6.5 81 81 WNW 9 15 30.21 1023 10 16.0934 N/A
3:55 am 03:55 Clear 25 -4 20 -6.6 82 82 NW 8 13 30.21 1023 10 16.0934 N/A
4:15 am 04:15 Clear 25 -3.8 20 -6.5 82 82 WNW 8 13 30.21 1023 10 16.0934 N/A
4:35 am 04:35 Clear 25 -4.1 20 -6.6 83 83 W 9 15 30.18 1022 10 16.0934 N/A
4:55 am 04:55 Clear 25 -3.9 20 -6.5 82 82 WNW 12 19 30.18 1022 10 16.0934 N/A
5:15 am 05:15 Clear 25 -3.8 20 -6.6 81 81 WNW 9 15 30.18 1022 10 16.0934 N/A
5:35 am 05:35 Clear 25 -4 20 -6.8 81 81 WNW 9 15 30.18 1022 10 16.0934 N/A
5:55 am 05:55 Clear 26 -3.6 20 -6.6 80 80 WNW 9 15 30.18 1022 10 16.0934 N/A
6:15 am 06:15 Clear 26 -3.6 20 -6.7 79 79 WNW 9 15 30.18 1022 10 16.0934 N/A
6:35 am 06:35 Clear 26 -3.6 20 -6.7 79 79 WNW 12 19 30.18 1022 10 16.0934 N/A
6:55 am 06:55 Clear 25 -3.7 20 -6.7 80 80 WNW 10 17 30.18 1022 10 16.0934 N/A
7:15 am 07:15 Clear 25 -3.7 20 -6.8 79 79 WNW 10 17 30.18 1022 10 16.0934 N/A
7:35 am 07:35 Sunny 25 -3.8 19 -7 79 79 WNW 9 15 30.18 1022 10 16.0934 N/A
7:55 am 07:55 Sunny 26 -3.5 20 -6.6 79 79 WNW 8 13 30.18 1022 10 16.0934 N/A
8:15 am 08:15 Sunny 27 -2.8 21 -6.2 78 78 WNW 9 15 30.18 1022 10 16.0934 N/A
8:35 am 08:35 Sunny 28 -2 21 -5.9 75 75 WNW 9 15 30.18 1022 10 16.0934 N/A
8:55 am 08:55 Sunny 31 -0.8 22 -5.3 72 72 WNW 10 17 30.15 1021 10 16.0934 N/A
9:15 am 09:15 Sunny 32 undefined 23 -5.1 69 69 WNW 12 19 30.15 1021 10 16.0934 N/A
9:35 am 09:35 Sunny 33 0.7 24 -4.7 67 67 WNW 10 17 30.12 1020 10 16.0934 N/A
9:55 am 09:55 Sunny 36 2 24 -4.2 64 64 WNW 13 20 30.12 1020 10 16.0934 N/A
10:15 am 10:15 Sunny 37 3 24 -4.2 60 60 NW 10 17 30.12 1020 10 16.0934 N/A
10:35 am 10:35 Sunny 39 4.1 25 -4 56 56 WNW 10 17 30.09 1019 10 16.0934 N/A
10:55 am 10:55 Sunny 42 5.6 25 -3.7 52 52 NW 7 11 30.09 1019 10 16.0934 N/A
11:15 am 11:15 Sunny 44 6.9 23 -5 43 43 WNW 3 6 30.09 1019 10 16.0934 N/A
11:35 am 11:35 Sunny 46 7.5 21 -5.9 38 38 N N/A 30.06 1018 10 16.0934 N/A
11:55 am 11:55 Sunny 46 8 20 -6.7 35 35 NNW 3 6 30.06 1018 10 16.0934 N/A
12:15 pm 12:15 Sunny 47 8.5 21 -5.9 36 36 W 9 15 30.06 1018 10 16.0934 N/A
12:35 pm 12:35 Sunny 48 9 21 -6.2 34 34 WNW 12 19 30.06 1018 10 16.0934 N/A
12:55 pm 12:55 Sunny 49 9.6 21 -6.2 33 33 WNW 15 24 30.06 1018 10 16.0934 N/A
1:15 pm 13:15 Sunny 49 9.5 21 -6.1 33 33 WNW 10 17 30 1016 10 16.0934 N/A
1:35 pm 13:35 Sunny 49 9.6 21 -6.1 33 33 WNW 10 17 30 1016 10 16.0934 N/A
1:55 pm 13:55 Sunny 51 10.3 22 -5.5 33 33 NW 16 26 30 1016 10 16.0934 N/A
2:15 pm 14:15 Mostly Cloudy 50 9.8 21 -6.1 32 32 NW 13 20 29.97 1015 10 16.0934 N/A
2:35 pm 14:35 Mostly Cloudy 48 8.8 20 -6.4 34 34 NNW 30 48 30.03 1017 10 16.0934 N/A
2:55 pm 14:55 Partly Cloudy 50 9.8 20 -6.6 31 31 NNW 31 50 30 1016 10 16.0934 N/A
3:15 pm 15:15 Sunny 46 7.7 22 -5.4 39 39 NNW 24 39 30.06 1018 10 16.0934 N/A
3:35 pm 15:35 Partly Cloudy 46 7.6 23 -5 41 41 NNW 26 43 30.06 1018 10 16.0934 N/A
3:55 pm 15:55 Mostly Cloudy 44 6.8 25 -4 46 46 N 29 46 30.09 1019 10 16.0934 N/A
4:15 pm 16:15 Partly Cloudy 42 5.7 22 -5.4 45 45 N 25 41 30.09 1019 10 16.0934 N/A
4:35 pm 16:35 Partly Cloudy 45 7.3 20 -6.9 36 36 N 32 52 30.09 1019 10 16.0934 N/A
4:55 pm 16:55 Partly Cloudy 44 6.7 15 -9.4 31 31 NNW 28 44 30.09 1019 10 16.0934 N/A
5:15 pm 17:15 Partly Cloudy 43 5.9 17 -8.4 35 35 N 25 41 30.12 1020 10 16.0934 N/A
5:35 pm 17:35 Sunny 41 5.1 17 -8.1 38 38 N 17 28 30.12 1020 10 16.0934 N/A
5:55 pm 17:55 Mostly Cloudy 41 5.1 17 -8.3 38 38 N 21 33 30.12 1020 10 16.0934 N/A
6:15 pm 18:15 Partly Cloudy 39 3.9 17 -8.1 42 42 N 14 22 30.18 1022 10 16.0934 N/A
6:35 pm 18:35 Clear 37 2.7 17 -8.1 45 45 N 12 19 30.18 1022 10 16.0934 N/A
6:55 pm 18:55 Clear 36 2 17 -8.4 46 46 N 9 15 30.18 1022 10 16.0934 N/A
7:15 pm 19:15 Clear 35 1.7 17 -8.6 47 47 N 12 19 30.18 1022 10 16.0934 N/A
7:35 pm 19:35 Clear 35 1.7 17 -8.6 47 47 N 14 22 30.18 1022 10 16.0934 N/A
7:55 pm 19:55 Clear 36 2 16 -8.7 45 45 N 16 26 30.21 1023 10 16.0934 N/A
8:15 pm 20:15 Partly Cloudy 35 1.7 16 -9 45 45 NNW 14 22 30.21 1023 10 16.0934 N/A
8:35 pm 20:35 Clear 33 0.8 17 -8.6 50 50 N 13 20 30.24 1024 10 16.0934 N/A
8:55 pm 20:55 Clear 33 0.6 17 -8.5 51 51 N 12 19 30.27 1025 10 16.0934 N/A
9:15 pm 21:15 Clear 33 0.7 18 -8 53 53 N 15 24 30.27 1025 10 16.0934 N/A
9:35 pm 21:35 Clear 32 undefined 19 -7.2 59 59 N 14 22 30.3 1026 10 16.0934 N/A
9:55 pm 21:55 Clear 32 undefined 20 -6.5 62 62 N 16 26 30.3 1026 10 16.0934 N/A
10:15 pm 22:15 Clear 31 -0.3 20 -6.6 63 63 N 14 22 30.3 1026 10 16.0934 N/A
10:35 pm 22:35 Clear 31 -0.3 20 -6.7 62 62 NNW 17 28 30.3 1026 10 16.0934 N/A
10:55 pm 22:55 Clear 31 -0.6 20 -6.8 63 63 NNW 17 28 30.33 1027 10 16.0934 N/A
11:15 pm 23:15 Clear 30 -0.9 19 -7 64 64 N 16 26 30.33 1027 10 16.0934 N/A
11:35 pm 23:35 Clear 30 -1.2 19 -7 65 65 NNW 12 19 30.33 1027 10 16.0934 N/A
11:55 pm 23:55 Clear 29 -1.8 19 -7.1 67 67 NW 9 15 30.33 1027 10 16.0934 N/A

Powered by AerisWeather